Location: Shepherdstown, WV
(39.4326°N, 77.8042°W)
Time: 07:55:48
(UTC-04:00)

Altair - Visible Passes

Search period start: 02 August 2021 00:00
Search period end: 12 August 2021 00:00
Orbit: 1502 x 1682 km, 47.2° (Epoch: 02 August)

Date Brightness Start Highest point End Pass type
(mag) Time Alt. Az. Time Alt. Az. Time Alt. Az.
02 Aug 7.7 01:32:17 50° ESE 01:32:17 50° ESE 01:40:11 10° ENE visible
02 Aug 7.6 03:30:16 28° W 03:35:53 70° NNW 03:45:05 10° ENE visible
02 Aug 8.1 05:32:36 10° WNW 05:41:39 53° N 05:50:35 10° ENE visible
03 Aug 7.9 01:08:03 43° ESE 01:08:03 43° ESE 01:14:58 10° ENE visible
03 Aug 7.5 03:06:02 35° WSW 03:10:40 74° NNW 03:19:54 10° ENE visible
03 Aug 8.1 05:07:18 10° WNW 05:16:23 53° N 05:25:19 10° ENE visible
04 Aug 8.1 00:43:45 36° E 00:43:45 36° E 00:49:44 10° ENE visible
04 Aug 7.5 02:41:43 42° WSW 02:45:28 77° NNW 02:54:44 10° ENE visible
04 Aug 8.1 04:42:01 10° WNW 04:51:07 53° N 05:00:04 10° ENE visible
05 Aug 8.3 00:19:23 31° E 00:19:23 31° E 00:24:29 10° ENE visible
05 Aug 7.4 02:17:21 51° WSW 02:20:15 81° NNW 02:29:33 10° ENE visible
05 Aug 8.1 04:16:42 10° W 04:25:51 53° N 04:34:48 10° ENE visible
05 Aug 8.5 23:54:57 26° E 23:54:57 26° E 23:59:13 10° ENE visible
06 Aug 7.4 01:52:54 60° WSW 01:55:03 85° NNW 02:04:23 10° ENE visible
06 Aug 8.0 03:51:25 10° W 04:00:35 54° N 04:09:34 10° ENE visible
06 Aug 8.6 23:30:24 23° E 23:30:24 23° E 23:33:56 10° ENE visible
07 Aug 7.3 01:28:21 68° WSW 01:29:52 89° NNW 01:39:13 10° ENE visible
07 Aug 8.0 03:26:18 11° W 03:35:19 55° N 03:44:19 10° ENE visible
07 Aug 7.9 05:31:58 10° WNW 05:41:13 64° NNE 05:50:18 10° E visible
07 Aug 8.7 23:05:42 20° E 23:05:42 20° E 23:08:37 10° ENE visible
08 Aug 7.3 01:03:38 74° SW 01:04:41 87° SSE 01:14:03 10° ENE visible
08 Aug 7.9 03:01:34 13° W 03:10:04 55° N 03:19:06 10° ENE visible
08 Aug 7.9 05:06:44 10° WNW 05:15:59 62° NNE 05:25:03 10° E visible
08 Aug 8.8 22:40:43 18° E 22:40:43 18° E 22:43:15 10° ENE visible
09 Aug 7.3 00:38:37 75° SSW 00:39:30 82° SSE 00:48:53 10° ENE visible
09 Aug 7.9 02:36:30 14° W 02:44:48 57° N 02:53:52 10° ENE visible
09 Aug 8.0 04:41:30 10° WNW 04:50:44 60° NNE 04:59:47 10° E visible
09 Aug 8.7 22:03:04 10° S 22:15:07 18° E 22:17:53 10° ENE visible
10 Aug 7.3 00:12:56 67° SSW 00:14:20 78° SE 00:23:43 10° ENE visible
10 Aug 7.9 02:10:43 12° W 02:19:32 58° NNW 02:28:39 10° ENE visible
10 Aug 8.0 04:16:15 10° WNW 04:25:30 58° NNE 04:34:31 10° E visible
10 Aug 8.3 21:38:23 10° S 21:45:30 23° SE 21:52:26 10° E visible
10 Aug 7.3 23:39:26 10° SW 23:49:10 73° SE 23:58:33 10° ENE visible
11 Aug 7.8 01:44:48 10° W 01:54:17 60° NNW 02:03:27 10° ENE visible
11 Aug 8.0 03:51:00 10° WNW 04:00:14 57° N 04:09:15 10° E visible
11 Aug 8.4 21:13:46 10° S 21:20:26 21° SE 21:26:57 10° E visible
11 Aug 7.3 23:14:17 10° SW 23:24:00 69° SE 23:33:22 10° ENE visible
